Regional Weather Roundup
Issued by NWS Cleveland, OH

Home | Current Version | Previous Version | Text Only | Print | Product List | Glossary On
Versions: 1 2 3 4 5 6 7 8 9 10 11 12 13 14 15 16 17 18 19 20 21 22 23 24 25 26 27 28 29 30 31 32 33 34 35 36 37 38 39 40 41 42 43 44 45 46 47 48 49 50
000
ASUS41 KCLE 300512
RWRCLE
OHIO REGIONAL WEATHER ROUNDUP
NATIONAL WEATHER SERVICE WILMINGTON, OH
100 AM EDT SUN APR 30 2017

NOTE: "FAIR" INDICATES FEW OR NO CLOUDS BELOW 12,000 FEET WITH NO
SIGNIFICANT WEATHER AND/OR OBSTRUCTIONS TO VISIBILITY.

OHZ001>008-015>018-024>027-034-035-043-044-300600-
   NORTHWEST OHIO

CITY           SKY/WX    TMP DP  RH WIND       PRES   REMARKS
DEFIANCE       RAIN      43  39  86 VRB7      30.15R
FINDLAY        CLOUDY    47  39  74 E15       30.03F
TOLEDO EXPRESS CLOUDY    44  40  85 E16G22    30.06F
TOLEDO EXEC    CLOUDY    47  40  76 E12G23    30.11F
LIMA           LGT RAIN  46  44  93 E18       29.99F
$$

OHZ009>014-019>023-028>033-038-089-300600-
   NORTHEAST OHIO

CITY           SKY/WX    TMP DP  RH WIND       PRES   REMARKS
CLE-HOPKINS    MOCLDY    49  40  71 NE10      30.12F
CLE-LAKEFRONT  FAIR      49  41  74 NE8       30.10F
CUY CO. ARPT   NOT AVBL
LORAIN-ELYRIA  FAIR      46  40  79 E12       30.09F
ASHTABULA      FAIR      48  43  82 VRB7      30.16F
AKRON-CANTON   FAIR      50  45  83 E12       30.08F HAZE
WOOSTER        MOCLDY    49  47  93 E9        30.08F
MANSFIELD      MOCLDY    48  47  96 E10       30.07F
YOUNGSTOWN     FAIR      50  47  89 NE7       30.14F
$$

OHZ042-051>053-060>062-070>072-077>081-300600-
  SOUTHWEST OHIO

CITY           SKY/WX    TMP DP  RH WIND       PRES   REMARKS
CINC-COVINGTON MOCLDY    73  66  78 S6        29.95R
CINC-LUNKEN    MOCLDY    66  66 100 CALM      29.95R FOG
HAMILTON       MOCLDY    65  63  93 E7        29.96R
DAYTON         TSTM      55  55 100 E15       29.98S VSB 1
WRIGHT-PAT AFB CLOUDY    58  58 100 CALM      29.98S FOG
DAYTON GENERAL MOCLDY    60  59  96 E8        29.97R FOG
WILMINGTON     FAIR      61  61 100 E8        29.99R FOG
$$

OHZ036-037-039>041-045>050-054>059-063>069-073>076-082>088-300600-
  CENTRAL AND SOUTHEAST OHIO

CITY           SKY/WX    TMP DP  RH WIND       PRES   REMARKS
COLUMBUS       CLOUDY    56  55  97 E8        30.03F FOG
OSU AIRPORT    CLOUDY    54  54 100 E12       30.03F FOG
BOLTON FIELD   CLOUDY    56  55  98 NE8       30.03S FOG
RICKENBACK AFB CLOUDY    57  57 100 E12G18    30.02R FOG
NEWARK         CLOUDY    56  54  93 E8        30.04F FOG
MARION         MOCLDY    51  48  89 E9        30.03F
LANCASTER      CLOUDY    61  59  93 E8        30.03F FOG
ZANESVILLE     CLOUDY    60  57  89 E8        30.06F
NEW PHILLY     CLOUDY    55  54  96 E7        30.10F FOG
$$



USA.gov is the U.S. government's official web portal to all federal, state and local government web resources and services.